Location: Ernez
(36.4595°N, 29.8755°E)
Time: 08:47:36
(UTC+00:00)

SL-19 R/B - Pass Details

Date: 13 November 2025
Orbit: 795 x 1008 km, 99.6° (Epoch: 05 December)

Event Time Altitude Azimuth Distance (km) Brightness Sun altitude
Rises 16:09:19 0° 150° (SSE) 3,355 7.1 -15.5°
Reaches altitude 10° 16:11:45 10° 145° (SE) 2,404 6.3 -15.9°
Maximum altitude 16:16:49 50° 71° (ENE) 1,019 4.2 -16.9°
Drops below altitude 10° 16:21:49 10° 357° (N) 2,371 6.5 -17.9°
Sets 16:24:11 0° 353° (N) 3,306 7.3 -18.4°
